Back to catalog

STARLINK-34574

AliveCommunicationsVLEO
NORAD 64714·PAYLOAD·🇺🇸 United States

Launched Jun 28, 2025 from Vandenberg Space Force Base

Loading…

Next Passes (next 24 hours)

TLE

FreshSource: CelesTrak SupGP

Epoch: Sep 14, 2026, 14:16 UTC

1 64714C 25142U   26257.59493056  .00029330  00000+0  10210-2 0  2578
2 64714  70.0009 196.5238 0002777 265.4443 247.5012 15.29543248    10

Track STARLINK-34574 in real time with AllMySat

Download on the App Store